Orbital Elements at Epoch 2459200.5 (2020-Dec-17.0) TDB
Reference: JPL 23 (heliocentric ecliptic J2000)
Element | Value | Uncertainty (1-sigma) | Units |
e | .2368583369808013 | 4.1746e-08 | |
a | 3.288834729703317 | 2.6768e-08 | au |
q | 2.509846805021086 | 1.3936e-07 | au |
i | .9416236625804516 | 4.1189e-06 | deg |
node | 301.2307548361564 | 0.00037097 | deg |
peri | 204.3978932544718 | 0.00037116 | deg |
M | 256.7972892757064 | 1.4454e-05 | deg |
tp | 2459825.025399083252 (2022-Sep-02.52539908) | 9.2653e-05 | TDB |
period | 2178.519751003465 5.96 | 2.6597e-05 7.282e-08 | d yr |
n | .1652498215057162 | 2.0175e-09 | deg/d |
Q | 4.067822654385548 | 3.3108e-08 | au |
|
| | Orbit Determination Parameters
Additional Information
|